Regional Weather Roundup
Issued by NWS Goodland, KS

Home | Current Version | Previous Version | Graphics & Text | Print | Product List | Glossary On
Versions: 1 2 3 4 5 6 7 8 9 10 11 12 13 14 15 16 17 18 19 20 21 22 23 24 25 26 27 28 29 30 31 32 33 34 35 36 37 38 39 40 41 42 43 44 45 46 47 48 49 50
440
ASUS43 KGLD 161959
RWRGLD

GOODLAND FORECAST AREA HOURLY WEATHER ROUNDUP
NATIONAL WEATHER SERVICE GOODLAND KS
200 PM MDT WED AUG 16 2017

...OFFICIAL OBSERVATIONS...

CITY           SKY/WX    TMP DP  RH WIND       PRES   REMARKS
GOODLAND KS    MOSUNNY   78  57  48 NW10      30.00F
HILL CITY KS   PTSUNNY   79  60  52 NW9       29.92F
IMPERIAL NEB   PTSUNNY   75  58  55 N14       29.99S
MCCOOK NEB     PTSUNNY   80  61  52 NW14G20   29.93F
AKRON CO       MOSUNNY   73  48  41 N15G22    30.09S
BURLINGTON CO  SUNNY     77  53  43 NW14G24   30.05F
LIMON CO       SUNNY     73  49  42 N15G25    30.13F
$$

...UNOFFICIAL OBSERVATIONS...

CITY           SKY/WX    TMP DP  RH WIND       PRES   REMARKS
LENORA KS        N/A     77  32  19 NW8         N/A
NORTON KS      PTSUNNY   81  55  41 NW12      29.91F
SHARON SPRINGS   N/A     78  59  52 W8G17       N/A
TRENTON NEB      N/A     76  32  20 NW7         N/A
KIT CARSON CO    N/A     75  53  45 MISG        N/A
YUMA CO        PTSUNNY   72  37  28 NW15      30.06S
$$




USA.gov is the U.S. government's official web portal to all federal, state and local government web resources and services.